Total_Precipitation_Accumulation
0.00 0.01 0.02 0.03 0.05 0.06 0.05 0.06 0.10 0.08 0.08 0.04 0.01 0.01 0.01 0.00 0.00 0.00 0.00 0.01 0.01 0.01 0.01 0.01 0.01 0.01 0.01 0.01 0.01 0.02 0.04 0.08 0.08 0.06 0.05 0.04 0.06 0.08 0.10 0.10 0.10 0.13 0.17 0.21
0.00 0.01 0.01 0.03 0.06 0.05 0.02 0.02 0.02 0.02 0.03 0.01 0.02 0.02 0.02 0.02 0.02 0.02 0.02 0.02 0.02 0.02 0.02 0.01 0.01 0.01 0.01 0.01 0.01 0.04 0.07 0.12 0.15 0.12 0.06 0.03 0.03 0.04 0.05 0.05 0.06 0.10 0.13 0.16
0.01 0.01 0.02 0.08 0.06 0.03 0.01 0.02 0.03 0.04 0.05 0.04 0.05 0.05 0.07 0.07 0.06 0.05 0.04 0.03 0.02 0.01 0.01 0.01 0.01 0.01 0.02 0.02 0.02 0.08 0.11 0.10 0.16 0.17 0.06 0.02 0.02 0.03 0.05 0.05 0.07 0.10 0.12 0.13
0.01 0.01 0.06 0.07 0.02 0.01 0.01 0.02 0.03 0.05 0.06 0.08 0.09 0.09 0.09 0.10 0.08 0.04 0.02 0.01 0.00 0.00 0.00 0.00 0.00 0.00 0.02 0.04 0.04 0.11 0.14 0.10 0.16 0.17 0.07 0.06 0.06 0.06 0.06 0.07 0.09 0.13 0.14 0.13
0.00 0.01 0.05 0.03 0.02 0.03 0.04 0.05 0.06 0.08 0.11 0.11 0.09 0.06 0.04 0.03 0.02 0.01 0.00 0.00 0.00 0.00 0.00 0.00 0.01 0.01 0.02 0.07 0.10 0.10 0.12 0.11 0.16 0.20 0.14 0.12 0.12 0.13 0.13 0.14 0.16 0.17 0.17 0.16
0.01 0.01 0.04 0.04 0.04 0.06 0.07 0.14 0.12 0.09 0.07 0.04 0.02 0.03 0.01 0.00 0.00 0.00 0.00 0.00 0.00 0.00 0.00 0.01 0.01 0.03 0.04 0.06 0.11 0.12 0.12 0.13 0.17 0.27 0.27 0.23 0.21 0.21 0.19 0.23 0.26 0.26 0.24 0.21
0.02 0.04 0.06 0.02 0.04 0.05 0.12 0.15 0.05 0.02 0.02 0.02 0.02 0.03 0.01 0.00 0.01 0.01 0.00 0.00 0.01 0.01 0.01 0.02 0.03 0.06 0.10 0.11 0.12 0.14 0.16 0.18 0.22 0.31 0.40 0.38 0.35 0.31 0.28 0.29 0.34 0.40 0.41 0.36
0.03 0.07 0.11 0.02 0.02 0.05 0.06 0.04 0.02 0.02 0.02 0.02 0.02 0.01 0.01 0.01 0.01 0.01 0.01 0.01 0.02 0.03 0.04 0.05 0.08 0.14 0.19 0.19 0.19 0.22 0.23 0.25 0.29 0.39 0.40 0.42 0.44 0.45 0.47 0.46 0.48 0.53 0.58 0.54
0.04 0.07 0.03 0.00 0.01 0.02 0.02 0.02 0.02 0.02 0.02 0.02 0.02 0.02 0.02 0.03 0.02 0.02 0.01 0.02 0.03 0.05 0.08 0.11 0.15 0.24 0.31 0.32 0.33 0.34 0.32 0.32 0.35 0.41 0.49 0.58 0.59 0.55 0.58 0.60 0.63 0.68 0.72 0.68
0.03 0.02 0.01 0.01 0.01 0.02 0.01 0.02 0.02 0.01 0.01 0.01 0.03 0.04 0.05 0.05 0.04 0.03 0.03 0.03 0.04 0.07 0.11 0.16 0.24 0.35 0.42 0.44 0.45 0.43 0.38 0.36 0.38 0.45 0.50 0.59 0.71 0.71 0.73 0.73 0.76 0.83 0.84 0.77
0.02 0.01 0.00 0.01 0.01 0.01 0.01 0.01 0.01 0.00 0.01 0.02 0.04 0.05 0.06 0.06 0.06 0.05 0.04 0.04 0.06 0.10 0.15 0.19 0.28 0.42 0.49 0.52 0.54 0.51 0.45 0.39 0.38 0.43 0.49 0.55 0.63 0.70 0.76 0.78 0.77 0.81 0.84 0.78
0.01 0.00 0.00 0.01 0.00 0.00 0.00 0.01 0.01 0.01 0.01 0.02 0.03 0.04 0.04 0.05 0.04 0.04 0.04 0.07 0.10 0.15 0.20 0.23 0.29 0.39 0.47 0.60 0.71 0.71 0.60 0.51 0.45 0.43 0.47 0.52 0.57 0.57 0.54 0.59 0.61 0.62 0.65 0.60
0.00 0.00 0.00 0.00 0.00 0.00 0.00 0.00 0.00 0.00 0.00 0.01 0.02 0.02 0.01 0.01 0.02 0.04 0.09 0.15 0.19 0.23 0.27 0.33 0.38 0.43 0.50 0.65 0.83 0.90 0.82 0.67 0.57 0.49 0.46 0.47 0.55 0.59 0.61 0.56 0.56 0.53 0.53 0.46
0.00 0.00 0.00 0.00 0.00 0.00 0.00 0.00 0.00 0.00 0.00 0.00 0.00 0.00 0.01 0.01 0.03 0.09 0.17 0.24 0.28 0.32 0.37 0.43 0.48 0.51 0.58 0.71 0.84 0.91 0.91 0.81 0.67 0.59 0.53 0.49 0.51 0.58 0.64 0.70 0.66 0.54 0.46 0.42
0.00 0.00 0.00 0.00 0.00 0.00 0.00 0.00 0.00 0.00 0.00 0.00 0.00 0.00 0.01 0.04 0.09 0.16 0.25 0.34 0.43 0.47 0.45 0.47 0.53 0.56 0.63 0.76 0.84 0.86 0.86 0.81 0.72 0.65 0.61 0.54 0.50 0.54 0.60 0.66 0.70 0.66 0.54 0.44
0.00 0.00 0.00 0.00 0.00 0.00 0.00 0.00 0.00 0.00 0.00 0.00 0.00 0.01 0.03 0.07 0.13 0.21 0.31 0.47 0.65 0.65 0.56 0.54 0.56 0.56 0.64 0.80 0.86 0.79 0.71 0.58 0.57 0.60 0.59 0.56 0.53 0.53 0.59 0.64 0.67 0.64 0.54 0.44
0.00 0.00 0.00 0.00 0.00 0.00 0.00 0.00 0.00 0.00 0.00 0.01 0.02 0.04 0.07 0.13 0.23 0.36 0.47 0.54 0.63 0.63 0.57 0.53 0.49 0.50 0.61 0.75 0.82 0.75 0.62 0.48 0.37 0.42 0.51 0.54 0.56 0.58 0.63 0.64 0.64 0.57 0.46 0.38
0.00 0.00 0.00 0.00 0.00 0.00 0.00 0.00 0.00 0.00 0.02 0.04 0.07 0.10 0.16 0.27 0.48 0.67 0.72 0.70 0.66 0.56 0.48 0.46 0.40 0.44 0.55 0.63 0.73 0.71 0.58 0.47 0.37 0.38 0.44 0.49 0.56 0.63 0.64 0.59 0.51 0.44 0.36 0.31
0.00 0.00 0.00 0.00 0.00 0.00 0.00 0.00 0.00 0.02 0.05 0.10 0.16 0.20 0.25 0.36 0.58 0.78 0.81 0.88 0.86 0.69 0.50 0.41 0.38 0.41 0.51 0.56 0.64 0.67 0.53 0.39 0.31 0.30 0.34 0.37 0.46 0.58 0.57 0.48 0.38 0.31 0.27 0.22
0.00 0.00 0.00 0.00 0.00 0.00 0.00 0.01 0.03 0.07 0.13 0.22 0.28 0.33 0.39 0.45 0.62 0.82 0.88 0.90 0.86 0.69 0.49 0.40 0.38 0.37 0.42 0.55 0.62 0.61 0.47 0.33 0.22 0.19 0.23 0.30 0.41 0.51 0.46 0.35 0.25 0.21 0.17 0.13
0.00 0.00 0.00 0.00 0.00 0.00 0.01 0.03 0.08 0.17 0.27 0.31 0.35 0.42 0.48 0.53 0.62 0.80 1.01 1.02 0.78 0.56 0.42 0.39 0.37 0.35 0.40 0.55 0.59 0.54 0.44 0.34 0.24 0.19 0.20 0.28 0.39 0.43 0.32 0.22 0.16 0.13 0.11 0.08
0.00 0.00 0.00 0.00 0.01 0.01 0.03 0.06 0.13 0.26 0.39 0.40 0.37 0.41 0.50 0.60 0.67 0.72 0.81 0.95 0.83 0.62 0.43 0.36 0.35 0.37 0.42 0.53 0.54 0.46 0.40 0.35 0.28 0.22 0.22 0.27 0.34 0.32 0.23 0.14 0.10 0.08 0.07 0.06
0.00 0.00 0.01 0.01 0.02 0.03 0.04 0.08 0.16 0.31 0.47 0.49 0.46 0.45 0.53 0.62 0.72 0.88 0.85 0.76 0.76 0.67 0.47 0.34 0.31 0.36 0.42 0.49 0.49 0.41 0.39 0.35 0.28 0.22 0.21 0.23 0.24 0.21 0.17 0.10 0.07 0.05 0.05 0.05
0.00 0.01 0.01 0.02 0.04 0.06 0.10 0.14 0.20 0.29 0.42 0.42 0.35 0.32 0.42 0.57 0.60 0.62 0.71 0.75 0.70 0.65 0.49 0.35 0.26 0.29 0.37 0.39 0.41 0.40 0.40 0.32 0.24 0.20 0.17 0.17 0.18 0.16 0.14 0.11 0.08 0.06 0.05 0.04
0.01 0.01 0.01 0.04 0.09 0.14 0.19 0.25 0.31 0.38 0.47 0.41 0.30 0.22 0.27 0.42 0.56 0.52 0.53 0.57 0.58 0.54 0.43 0.34 0.30 0.32 0.33 0.36 0.38 0.38 0.34 0.24 0.18 0.16 0.16 0.17 0.16 0.14 0.13 0.10 0.07 0.06 0.05 0.05
0.01 0.01 0.03 0.06 0.11 0.17 0.21 0.32 0.41 0.49 0.62 0.57 0.40 0.23 0.20 0.26 0.33 0.37 0.42 0.47 0.50 0.51 0.39 0.29 0.27 0.32 0.34 0.36 0.36 0.32 0.27 0.22 0.19 0.18 0.18 0.19 0.17 0.14 0.12 0.10 0.08 0.07 0.06 0.06
0.01 0.01 0.03 0.09 0.15 0.16 0.18 0.26 0.36 0.53 0.71 0.71 0.49 0.25 0.18 0.20 0.26 0.31 0.35 0.43 0.49 0.50 0.39 0.28 0.24 0.26 0.28 0.29 0.28 0.24 0.19 0.16 0.16 0.15 0.14 0.13 0.13 0.11 0.09 0.08 0.07 0.06 0.06 0.05